Location: Hoyos del Collado
(40.3594°N, 5.2003°W)
Time: 00:27:49
(UTC+00:00)

PSLV R/B - Visible Passes

Search period start: 21 July 2024 00:00
Search period end: 31 July 2024 00:00
Orbit: 463 x 513 km, 97.7° (Epoch: 20 July)

Date Brightness Start Highest point End Pass type
(mag) Time Alt. Az. Time Alt. Az. Time Alt. Az.
21 Jul 4.1 20:49:02 10° S 20:52:31 58° W 20:56:06 10° NNW visible
22 Jul 3.6 20:25:44 10° SSE 20:29:16 65° ENE 20:32:52 10° N visible
23 Jul 6.3 21:37:33 10° SW 21:39:37 15° W 21:41:43 10° WNW visible
24 Jul 5.4 21:12:59 10° SSW 21:16:07 28° W 21:19:19 10° NW visible
25 Jul 4.1 20:49:08 10° S 20:52:40 60° W 20:56:17 10° NNW visible
26 Jul 3.6 20:25:42 10° SSE 20:29:15 63° ENE 20:32:53 10° N visible
27 Jul 6.3 21:37:15 10° SW 21:39:26 15° W 21:41:39 10° NW visible
28 Jul 5.3 21:12:36 10° SSW 21:15:47 29° W 21:19:03 10° NW visible
29 Jul 4.0 20:48:37 10° S 20:52:11 62° W 20:55:50 10° NNW visible
30 Jul 3.7 20:25:03 10° SSE 20:28:38 61° ENE 20:32:16 10° N visible
